Location: Highridge
(54.0333°N, 114.1333°W)
Time: 14:00:29
(UTC+00:00)

SO-50 - Pass Details

Date: 14 December 2023
Orbit: 607 x 661 km, 64.6° (Epoch: 21 February)

Event Time Altitude Azimuth Distance (km) Brightness Sun altitude
Exits shadow 11:29:35 12° 37° (NE) 1,895 ? -36.3°
Drops below altitude 10° 11:30:00 10° 40° (NE) 2,033 ? -36.2°
Sets 11:32:32 0° 52° (NE) 2,932 ? -35.9°
